Tracking 31027 objects as of 19-Jul-2025
HD Live streaming from Space Station
objects crossing your sky now

FENGYUN 1C DEB

Track FENGYUN 1C DEB now!
10-day predictions


NORAD ID: 30565
Int'l Code: 1999-025ALF
Perigee: 764.3 km
Apogee: 977.2 km
Inclination: 98.5 °
Period: 102.2 minutes
Semi major axis: 7241 km
RCS: 0.0268 m2 (small)
Launch date: May 10, 1999
Source: People's Republic of China (PRC)
Launch site: Taiyaun Space Center, China (TSC)

Note: This is SATELLITE DEBRIS
Your satellite tracking list
STARLINK-31009
Track 1 satellite(s)




NASA's NSSDC Master Catalog

Two Line Element Set (TLE):
1 30565U 99025ALF 25198.64782692  .00002115  00000-0  11309-2 0  9998
2 30565  98.4648  77.7933 0147014  58.1395 328.9221 14.08761988938418
Source of the keplerian elements: AFSPC